EW7404 Weather Reports


time (UTC)temp
C
wind
direction
speed
KPH
gust
KPH
rain 1hr
cm
rain 24hr
cm
rain mn
cm
humidity
%
barometer
mb
20260906052015 8 346 14.5 35.4 0.00 1.65 0.56 86 962.0
20260906051015 8 1 12.9 17.7 0.00 1.65 0.56 85 961.9
20260906050015 9 12 14.5 24.1 0.00 1.65 0.56 83 961.9
20260906045014 9 7 11.3 16.1 0.00 1.65 0.56 82 961.7
20260906044015 10 355 9.7 14.5 0.00 1.65 0.56 79 961.6
20260906043015 10 6 14.5 20.9 0.00 1.65 0.56 78 961.6
20260906042014 10 345 11.3 16.1 0.00 1.65 0.56 76 961.5
20260906041015 10 334 16.1 19.3 0.00 1.65 0.56 72 961.5
20260906040015 11 335 12.9 16.1 0.00 1.65 0.56 69 961.4
20260906035015 10 332 11.3 12.9 0.03 1.65 0.56 70 961.4
20260906034015 10 305 8.0 9.7 0.03 1.68 0.56 66 961.4
20260906033035 10 307 6.4 8.0 0.03 1.68 0.56 63 961.4
20260906032015 11 329 8.0 11.3 0.03 1.68 0.56 61 961.3
20260906031014 11 314 9.7 12.9 0.03 1.68 0.56 59 961.3
20260906030015 11 324 8.0 9.7 0.03 1.68 0.56 58 961.2
20260906025015 11 322 9.7 11.3 0.00 1.65 0.53 58 961.2
20260906024016 11 307 9.7 11.3 0.00 1.65 0.53 57 961.2
20260906023015 12 319 11.3 12.9 0.00 1.65 0.53 57 961.2
20260906022015 12 318 9.7 11.3 0.00 1.65 0.53 57 961.3
20260906021015 11 309 8.0 9.7 0.00 1.65 0.53 56 961.3
20260906020015 11 318 8.0 11.3 0.00 1.65 0.53 56 961.3
20260906015015 12 339 11.3 12.9 0.00 1.65 0.53 55 961.3
20260906014015 12 348 11.3 17.7 0.53 1.65 0.53 54 961.4
20260906013015 12 345 9.7 11.3 0.53 1.65 0.53 53 961.4
20260906012015 12 357 12.9 17.7 0.53 1.65 0.53 53 961.5
20260906011015 12 346 14.5 19.3 0.53 1.65 0.53 52 961.5
20260906010015 12 346 12.9 16.1 0.53 1.65 0.53 51 961.5
20260906005056 12 346 12.9 17.7 0.53 1.65 0.53 50 961.5
20260906004035 12 345 12.9 17.7 0.00 1.12 0.00 49 961.5
20260906003016 12 341 16.1 19.3 0.00 1.12 0.00 49 961.5
20260906002015 13 342 14.5 19.3 0.00 1.12 0.00 48 961.6
20260906001055 13 330 12.9 19.3 0.00 1.12 0.00 47 961.7
20260906000015 13 347 16.1 19.3 0.00 1.12 0.00 47 961.7
20260905235015 13 340 14.5 19.3 0.00 1.12 0.00 47 961.7
20260905234016 13 342 12.9 17.7 0.00 1.12 0.00 46 961.8
20260905233035 13 328 12.9 17.7 0.00 1.12 0.00 46 961.9
20260905232015 13 318 14.5 20.9 0.00 1.12 0.00 44 961.9
20260905231015 13 314 20.9 27.4 0.00 1.12 0.00 44 961.9
20260905230035 13 296 20.9 27.4 0.00 1.12 0.00 44 961.7
20260905225015 13 307 22.5 29.0 0.00 1.12 0.00 43 961.8
20260905224016 13 293 22.5 27.4 0.00 1.12 0.00 43 961.6
20260905223035 13 296 25.7 30.6 0.00 1.12 0.00 48 961.7
20260905222016 13 291 25.7 30.6 0.00 1.12 0.00 52 961.5
20260905221015 13 287 27.4 32.2 0.00 1.12 0.00 51 961.5
20260905220015 13 283 25.7 33.8 0.00 1.12 0.00 52 961.5
20260905215035 13 283 25.7 32.2 0.00 1.12 0.00 52 961.5
20260905214015 13 283 25.7 32.2 0.00 1.12 0.00 50 961.5
20260905213035 13 275 20.9 27.4 0.00 1.12 0.00 47 961.5
20260905212017 13 283 25.7 30.6 0.00 1.12 0.00 50 961.6
20260905211015 13 284 22.5 27.4 0.00 1.12 0.00 43 961.7
20260905210015 14 294 19.3 24.1 0.00 1.12 0.00 39 961.8
20260905205015 14 303 16.1 19.3 0.00 1.12 1.12 37 961.9
20260905204015 15 310 17.7 20.9 0.00 7.65 1.12 38 961.8
20260905203016 15 302 16.1 22.5 0.00 7.65 1.12 39 961.7
20260905202035 15 287 16.1 19.3 0.00 7.65 1.12 40 961.6
20260905201015 15 283 12.9 16.1 0.00 7.65 1.12 38 961.6
20260905200015 15 300 14.5 17.7 0.00 7.65 1.12 39 961.8
20260905195015 15 303 14.5 19.3 0.00 7.65 1.12 40 961.8
20260905194016 15 299 14.5 19.3 0.00 7.65 1.12 37 961.7
20260905193015 15 293 12.9 16.1 0.00 7.65 1.12 37 961.7
20260905192015 15 300 11.3 14.5 0.00 7.65 1.12 37 961.7
20260905191056 15 325 12.9 17.7 0.00 7.65 1.12 38 961.8
20260905190036 15 308 12.9 16.1 0.00 7.65 1.12 38 961.8
20260905185015 15 315 14.5 17.7 0.00 7.65 1.12 38 961.7
20260905184036 15 321 9.7 14.5 0.00 7.65 1.12 38 961.6
20260905183015 15 318 14.5 19.3 0.00 7.65 1.12 37 961.5
20260905182036 15 312 17.7 22.5 0.00 7.65 1.12 36 961.5
20260905181035 15 292 17.7 19.3 0.00 7.65 1.12 39 961.3
20260905180015 15 284 17.7 19.3 0.00 7.65 1.12 39 961.2
20260905175015 15 278 16.1 17.7 0.00 7.65 1.12 40 961.2
20260905174015 15 300 9.7 12.9 0.00 7.65 1.12 41 961.3
20260905173015 15 323 9.7 12.9 0.00 7.65 1.12 42 961.3
20260905172015 15 327 8.0 9.7 0.00 7.65 1.12 43 961.3
20260905171015 15 336 9.7 12.9 0.00 7.65 1.12 43 961.2
20260905170055 15 324 11.3 14.5 0.00 7.65 1.12 42 961.2
20260905165015 15 340 12.9 19.3 0.00 7.65 1.12 42 961.2
20260905164035 15 345 14.5 17.7 0.00 7.65 1.12 41 961.3
20260905163015 15 344 16.1 20.9 0.00 7.65 1.12 41 961.3
20260905162016 16 335 12.9 17.7 0.00 7.65 1.12 41 961.3
20260905161016 16 341 11.3 16.1 0.00 7.65 1.12 40 961.3
20260905160015 16 345 14.5 22.5 0.00 7.67 1.12 41 961.3
20260905155015 16 342 12.9 22.5 0.00 7.67 1.12 41 961.5
20260905154015 16 357 14.5 24.1 0.00 7.67 1.12 42 961.5
20260905153016 16 344 17.7 24.1 0.61 7.67 1.12 40 961.4
20260905152015 16 340 11.3 19.3 0.61 7.67 1.12 39 961.4
20260905151035 16 343 16.1 24.1 0.61 7.67 1.12 39 961.3
20260905150015 16 336 14.5 22.5 0.61 7.67 1.12 37 961.4
20260905145015 16 338 12.9 19.3 0.61 7.67 1.12 36 961.3
20260905144015 16 340 9.7 17.7 0.61 7.67 1.12 35 961.3
20260905143015 16 334 9.7 17.7 0.00 7.06 0.51 34 961.4
20260905142015 16 321 8.0 16.1 0.00 7.06 0.51 33 961.5
20260905141015 16 348 16.1 25.7 0.00 7.06 0.51 35 961.4
20260905140015 16 351 14.5 24.1 0.00 7.06 0.51 35 961.5
20260905135016 16 339 8.0 17.7 0.00 7.67 0.51 33 961.3
20260905134015 16 343 9.7 19.3 0.00 7.67 0.51 33 961.3
20260905133016 16 341 12.9 93.3 0.00 7.67 0.51 33 961.5
20260905132015 16 328 9.7 17.7 0.00 7.67 0.51 33 961.4
20260905131015 16 327 6.4 14.5 0.00 7.67 0.51 33 961.4
20260905130016 15 354 12.9 20.9 0.00 7.67 0.51 33 961.3
20260905125015 15 339 12.9 22.5 0.00 7.67 0.51 33 961.5
20260905124015 15 349 14.5 24.1 0.00 7.67 0.51 33 961.5
20260905123015 15 332 9.7 17.7 0.00 7.67 0.51 33 961.4
20260905122015 15 2 11.3 19.3 0.00 7.67 0.51 33 961.4
20260905121017 15 346 9.7 19.3 0.00 7.67 0.51 35 961.6
20260905120015 15 350 12.9 17.7 0.51 7.67 0.51 36 961.6
20260905115015 15 10 9.7 19.3 0.51 7.67 0.51 39 961.6
20260905114015 15 354 12.9 20.9 0.51 7.67 0.51 42 961.4
20260905113015 15 340 12.9 17.7 0.51 7.67 0.51 42 961.4
20260905112016 15 6 9.7 17.7 0.51 7.67 0.51 43 961.4
20260905111015 14 356 12.9 22.5 0.51 7.67 0.51 44 961.6
20260905110035 14 350 9.7 19.3 0.00 7.16 0.03 38 961.3
20260905105015 14 352 11.3 19.3 0.00 7.16 0.03 42 961.3
20260905104015 14 350 8.0 14.5 0.00 7.16 0.03 40 961.7
20260905103015 14 334 11.3 16.1 0.00 7.16 0.03 43 961.3
20260905102016 14 354 9.7 17.7 0.00 7.16 0.03 45 961.2
20260905101015 14 352 11.3 16.1 0.00 7.16 0.03 43 961.2
20260905100015 14 345 8.0 14.5 0.00 7.16 0.03 42 961.3
20260905095015 13 355 6.4 12.9 0.00 7.16 0.03 46 961.2
20260905094015 13 355 6.4 11.3 0.00 7.16 0.03 47 961.5
20260905093015 13 359 8.0 12.9 0.00 7.16 0.03 49 961.2
20260905092016 14 341 6.4 11.3 0.00 7.16 0.03 41 961.1
20260905091015 14 348 4.8 9.7 0.00 7.16 0.03 34 961.1
20260905090035 15 354 4.8 9.7 0.00 7.16 0.03 30 961.5
20260905085016 14 62 3.2 8.0 0.00 7.16 0.03 29 961.0
20260905084015 13 288 1.6 4.8 0.00 7.16 0.03 38 961.1
20260905083015 13 337 3.2 6.4 0.00 7.16 0.03 39 961.0
20260905082015 13 358 3.2 9.7 0.00 7.16 0.03 35 960.8
20260905081015 13 6 3.2 8.0 0.00 7.16 0.03 37 960.7
20260905080015 13 354 4.8 8.0 0.00 7.16 0.03 32 960.6
20260905075015 13 354 3.2 8.0 0.00 7.16 0.03 31 960.4
20260905074015 13 27 6.4 14.5 0.00 7.16 0.03 25 960.4
20260905073015 13 357 1.6 3.2 0.00 7.16 0.03 28 960.5
20260905072015 13 16 4.8 9.7 0.00 7.16 0.03 22 960.5
20260905071015 12 79 3.2 8.0 0.00 7.16 0.03 24 960.3
20260905070015 12 0 4.8 6.4 0.00 7.16 0.03 19 960.2
20260905065016 12 14 4.8 8.0 0.00 7.16 0.03 21 960.3
20260905064015 14 27 4.8 9.7 0.00 7.16 0.03 21 960.0
20260905063036 13 127 4.8 11.3 0.00 7.16 0.03 24 960.0
20260905062015 13 179 3.2 9.7 0.00 7.77 0.03 24 960.0
20260905061036 12 359 3.2 8.0 0.00 7.77 0.03 21 960.0
20260905060015 12 334 4.8 9.7 0.00 7.77 0.03 22 959.8
20260905055016 11 281 6.4 11.3 0.00 7.77 0.03 27 959.8
20260905054016 11 291 4.8 11.3 0.00 7.77 0.03 30 959.8
20260905053015 11 271 4.8 9.7 0.00 7.77 0.03 33 959.8